Location: East Irvine
(33.6759°N, 117.7598°W)
Time: 01:50:33
(UTC+00:00)

SL-12 R/B(2) - Pass Details

Date: 15 November 2025
Orbit: 1173 x 2175 km, 63.4° (Epoch: 07 December)

Event Time Altitude Azimuth Distance (km) Brightness Sun altitude
Rises 01:16:50 0° 206° (SSW) 4,071 7.5 -6.4°
Reaches altitude 10° 01:19:24 10° 205° (SSW) 3,152 6.8 -6.9°
Maximum altitude 01:26:53 84° 119° (ESE) 1,342 4.2 -8.4°
Drops below altitude 10° 01:35:50 10° 32° (NNE) 3,726 6.1 -10.2°
Sets 01:39:07 0° 32° (NNE) 4,855 6.7 -10.8°
